| time (UTC) | temp F | wind direction | speed MPH | gust MPH | rain 1hr in | rain 24hr in | rain mn in | humidity % | barometer mb |
| 20260506015022 | 53 | 152 | 8.0 | 13.0 | 0.00 | 0.00 | 0.00 | 58 | 1009.7 |
| 20260506014520 | 53 | 175 | 8.0 | 18.0 | 0.00 | 0.00 | 0.00 | 57 | 1009.7 |
| 20260506014241 | 53 | 154 | 8.0 | 18.0 | 0.00 | 0.00 | 0.00 | 59 | 1009.7 |
| 20260506013520 | 52 | 153 | 7.0 | 13.0 | 0.00 | 0.00 | 0.00 | 59 | 1009.9 |
| 20260506013018 | 52 | 171 | 8.0 | 16.0 | 0.00 | 0.00 | 0.00 | 60 | 1009.7 |
| 20260506012510 | 53 | 190 | 7.0 | 16.0 | 0.00 | 0.00 | 0.00 | 58 | 1009.6 |
| 20260506012009 | 52 | 157 | 7.0 | 15.0 | 0.00 | 0.00 | 0.00 | 59 | 1010.0 |
| 20260506011507 | 51 | 159 | 7.0 | 12.0 | 0.00 | 0.00 | 0.00 | 63 | 1009.9 |
| 20260506011015 | 51 | 109 | 8.0 | 13.0 | 0.00 | 0.00 | 0.00 | 62 | 1010.0 |
| 20260506010506 | 53 | 182 | 9.0 | 14.0 | 0.00 | 0.00 | 0.00 | 60 | 1010.0 |
| 20260506010006 | 53 | 141 | 8.0 | 14.0 | 0.00 | 0.00 | 0.00 | 60 | 1009.9 |
| 20260506005506 | 52 | 163 | 8.0 | 13.0 | 0.00 | 0.00 | 0.00 | 60 | 1009.7 |
| 20260506005005 | 53 | 153 | 9.0 | 13.0 | 0.00 | 0.00 | 0.00 | 59 | 1009.7 |
| 20260506004505 | 52 | 161 | 9.0 | 13.0 | 0.00 | 0.00 | 0.00 | 60 | 1009.9 |
| 20260506004003 | 52 | 157 | 9.0 | 15.0 | 0.00 | 0.00 | 0.00 | 60 | 1009.9 |
| 20260506003952 | 53 | 171 | 10.0 | 18.0 | 0.00 | 0.00 | 0.00 | 59 | 1010.0 |
| 20260506003003 | 53 | 175 | 9.0 | 18.0 | 0.00 | 0.00 | 0.00 | 59 | 1009.9 |
| 20260506002516 | 53 | 117 | 9.0 | 16.0 | 0.00 | 0.00 | 0.00 | 59 | 1009.9 |
| 20260506002239 | 53 | 161 | 8.0 | 16.0 | 0.00 | 0.00 | 0.00 | 59 | 1009.9 |
| 20260506001502 | 52 | 144 | 8.0 | 14.0 | 0.00 | 0.00 | 0.00 | 59 | 1009.9 |
| 20260506001235 | 53 | 133 | 8.0 | 14.0 | 0.00 | 0.00 | 0.00 | 59 | 1009.9 |
| 20260506000506 | 52 | 177 | 5.0 | 14.0 | 0.00 | 0.00 | 0.00 | 60 | 1010.0 |
| 20260506000005 | 52 | 213 | 4.0 | 9.0 | 0.00 | 0.00 | 0.00 | 60 | 1009.9 |
| 20260505235504 | 52 | 142 | 4.0 | 10.0 | 0.00 | 0.00 | 0.00 | 61 | 1009.9 |
| 20260505235001 | 52 | 197 | 5.0 | 13.0 | 0.00 | 0.00 | 0.00 | 61 | 1010.0 |
| 20260505234501 | 53 | 209 | 7.0 | 15.0 | 0.00 | 0.00 | 0.00 | 59 | 1009.9 |
| 20260505234225 | 53 | 164 | 8.0 | 19.0 | 0.00 | 0.00 | 0.00 | 59 | 1010.0 |
| 20260505233501 | 53 | 144 | 9.0 | 19.0 | 0.00 | 0.00 | 0.00 | 59 | 1010.1 |
| 20260505233001 | 52 | 94 | 7.0 | 15.0 | 0.00 | 0.00 | 0.00 | 61 | 1010.2 |
| 20260505232500 | 51 | 196 | 5.0 | 11.0 | 0.00 | 0.00 | 0.00 | 62 | 1010.1 |
| 20260505232001 | 51 | 190 | 5.0 | 11.0 | 0.00 | 0.00 | 0.00 | 61 | 1010.2 |
| 20260505231501 | 52 | 186 | 5.0 | 11.0 | 0.00 | 0.00 | 0.00 | 60 | 1010.2 |
| 20260505231001 | 52 | 207 | 5.0 | 12.0 | 0.00 | 0.00 | 0.00 | 60 | 1010.2 |
| 20260505230501 | 53 | 205 | 7.0 | 16.0 | 0.00 | 0.00 | 0.00 | 58 | 1010.2 |
| 20260505230003 | 53 | 188 | 8.0 | 16.0 | 0.00 | 0.00 | 0.00 | 58 | 1010.2 |
| 20260505225502 | 53 | 148 | 7.0 | 13.0 | 0.00 | 0.00 | 0.00 | 58 | 1010.2 |
| 20260505225002 | 53 | 122 | 5.0 | 13.0 | 0.00 | 0.00 | 0.00 | 58 | 1010.2 |
| 20260505224502 | 53 | 165 | 5.0 | 13.0 | 0.00 | 0.00 | 0.00 | 58 | 1010.3 |
| 20260505224002 | 53 | 151 | 7.0 | 13.0 | 0.00 | 0.00 | 0.00 | 58 | 1010.3 |
| 20260505223503 | 53 | 115 | 8.0 | 13.0 | 0.00 | 0.00 | 0.00 | 58 | 1010.3 |
| 20260505223227 | 53 | 140 | 8.0 | 13.0 | 0.00 | 0.00 | 0.00 | 59 | 1010.3 |
| 20260505222725 | 53 | 101 | 7.0 | 14.0 | 0.00 | 0.00 | 0.00 | 58 | 1010.3 |
| 20260505222002 | 53 | 139 | 8.0 | 16.0 | 0.00 | 0.00 | 0.00 | 58 | 1010.2 |
| 20260505221501 | 54 | 138 | 10.0 | 21.0 | 0.00 | 0.00 | 0.00 | 57 | 1010.2 |
| 20260505221001 | 54 | 119 | 9.0 | 21.0 | 0.00 | 0.00 | 0.00 | 56 | 1010.3 |
| 20260505220502 | 54 | 175 | 5.0 | 16.0 | 0.00 | 0.00 | 0.00 | 56 | 1010.2 |
| 20260505220001 | 54 | 134 | 5.0 | 16.0 | 0.00 | 0.00 | 0.00 | 56 | 1010.1 |
| 20260505215500 | 54 | 206 | 7.0 | 15.0 | 0.00 | 0.00 | 0.00 | 55 | 1010.2 |
| 20260505215228 | 54 | 175 | 8.0 | 15.0 | 0.00 | 0.00 | 0.00 | 56 | 1010.3 |
| 20260505214501 | 54 | 180 | 8.0 | 15.0 | 0.00 | 0.00 | 0.00 | 55 | 1010.3 |
| 20260505214001 | 54 | 147 | 7.0 | 12.0 | 0.00 | 0.00 | 0.00 | 56 | 1010.4 |
| 20260505213516 | 53 | 192 | 7.0 | 11.0 | 0.00 | 0.00 | 0.00 | 58 | 1010.4 |
| 20260505213002 | 53 | 195 | 7.0 | 11.0 | 0.00 | 0.00 | 0.00 | 59 | 1010.4 |
| 20260505212506 | 53 | 134 | 7.0 | 15.0 | 0.00 | 0.00 | 0.00 | 58 | 1010.5 |
| 20260505212247 | 52 | 180 | 5.0 | 15.0 | 0.00 | 0.00 | 0.00 | 60 | 1010.4 |
| 20260505211504 | 51 | 125 | 5.0 | 11.0 | 0.00 | 0.00 | 0.00 | 63 | 1010.5 |
| 20260505211008 | 51 | 135 | 5.0 | 11.0 | 0.00 | 0.00 | 0.00 | 66 | 1010.4 |
| 20260505210502 | 51 | 150 | 5.0 | 9.0 | 0.00 | 0.00 | 0.00 | 65 | 1010.5 |
| 20260505210002 | 51 | 138 | 4.0 | 9.0 | 0.00 | 0.00 | 0.00 | 65 | 1010.5 |
| 20260505205501 | 53 | 138 | 4.0 | 12.0 | 0.00 | 0.00 | 0.00 | 62 | 1010.4 |
| 20260505205231 | 54 | 123 | 7.0 | 13.0 | 0.00 | 0.00 | 0.00 | 59 | 1010.4 |
| 20260505204501 | 54 | 135 | 8.0 | 13.0 | 0.00 | 0.00 | 0.00 | 59 | 1010.5 |
| 20260505204001 | 53 | 166 | 8.0 | 15.0 | 0.00 | 0.00 | 0.00 | 61 | 1010.5 |
| 20260505203730 | 54 | 146 | 9.0 | 16.0 | 0.00 | 0.00 | 0.00 | 61 | 1010.5 |
| 20260505203002 | 54 | 154 | 10.0 | 22.0 | 0.00 | 0.00 | 0.00 | 61 | 1010.6 |
| 20260505202501 | 53 | 121 | 9.0 | 22.0 | 0.00 | 0.00 | 0.00 | 61 | 1010.6 |
| 20260505202002 | 53 | 123 | 9.0 | 16.0 | 0.00 | 0.00 | 0.00 | 61 | 1010.5 |
| 20260505201729 | 53 | 159 | 9.0 | 18.0 | 0.00 | 0.00 | 0.00 | 61 | 1010.6 |
| 20260505201225 | 54 | 138 | 9.0 | 20.0 | 0.00 | 0.00 | 0.00 | 61 | 1010.5 |
| 20260505200457 | 54 | 171 | 9.0 | 20.0 | 0.00 | 0.00 | 0.00 | 61 | 1010.3 |
| 20260505195956 | 54 | 157 | 9.0 | 19.0 | 0.00 | 0.00 | 0.00 | 61 | 1010.4 |
| 20260505195457 | 54 | 134 | 8.0 | 14.0 | 0.00 | 0.00 | 0.00 | 61 | 1010.3 |
| 20260505194957 | 54 | 129 | 8.0 | 18.0 | 0.00 | 0.00 | 0.00 | 60 | 1010.3 |
| 20260505194454 | 54 | 176 | 8.0 | 18.0 | 0.00 | 0.00 | 0.00 | 60 | 1010.3 |
| 20260505193956 | 54 | 157 | 9.0 | 15.0 | 0.00 | 0.00 | 0.00 | 60 | 1010.1 |
| 20260505193459 | 54 | 120 | 9.0 | 15.0 | 0.00 | 0.00 | 0.00 | 60 | 1010.0 |
| 20260505192957 | 54 | 131 | 8.0 | 15.0 | 0.00 | 0.00 | 0.00 | 61 | 1010.0 |
| 20260505192456 | 53 | 155 | 9.0 | 18.0 | 0.00 | 0.00 | 0.00 | 61 | 1010.0 |
| 20260505191952 | 53 | 146 | 9.0 | 18.0 | 0.00 | 0.00 | 0.00 | 62 | 1009.9 |
| 20260505191452 | 53 | 152 | 7.0 | 16.0 | 0.00 | 0.00 | 0.00 | 62 | 1009.9 |
| 20260505190952 | 53 | 148 | 7.0 | 14.0 | 0.00 | 0.00 | 0.00 | 64 | 1009.7 |
| 20260505190452 | 53 | 146 | 7.0 | 12.0 | 0.00 | 0.00 | 0.00 | 64 | 1009.7 |
| 20260505185951 | 53 | 123 | 8.0 | 14.0 | 0.00 | 0.00 | 0.00 | 62 | 1009.7 |
| 20260505185452 | 54 | 130 | 9.0 | 18.0 | 0.00 | 0.00 | 0.00 | 62 | 1009.9 |
| 20260505185215 | 54 | 126 | 10.0 | 20.0 | 0.00 | 0.00 | 0.00 | 61 | 1010.0 |
| 20260505184452 | 54 | 144 | 9.0 | 20.0 | 0.00 | 0.00 | 0.00 | 61 | 1009.6 |
| 20260505184442 | 54 | 153 | 9.0 | 19.0 | 0.00 | 0.00 | 0.00 | 61 | 1009.4 |
| 20260505183440 | 54 | 150 | 10.0 | 19.0 | 0.00 | 0.00 | 0.00 | 60 | 1009.4 |
| 20260505182936 | 54 | 141 | 10.0 | 19.0 | 0.00 | 0.00 | 0.00 | 60 | 1009.3 |
| 20260505182436 | 55 | 127 | 10.0 | 19.0 | 0.00 | 0.00 | 0.00 | 60 | 1009.3 |
| 20260505181936 | 55 | 136 | 9.0 | 19.0 | 0.00 | 0.00 | 0.00 | 59 | 1009.4 |
| 20260505181436 | 55 | 181 | 10.0 | 23.0 | 0.00 | 0.00 | 0.00 | 59 | 1009.4 |
| 20260505180936 | 55 | 151 | 10.0 | 23.0 | 0.00 | 0.00 | 0.00 | 59 | 1009.5 |
| 20260505180436 | 55 | 199 | 10.0 | 20.0 | 0.00 | 0.00 | 0.00 | 59 | 1009.4 |
| 20260505175935 | 55 | 156 | 11.0 | 21.0 | 0.00 | 0.00 | 0.00 | 58 | 1009.4 |
| 20260505175436 | 55 | 173 | 10.0 | 21.0 | 0.00 | 0.00 | 0.00 | 58 | 1009.5 |
| 20260505174936 | 55 | 180 | 9.0 | 19.0 | 0.00 | 0.00 | 0.00 | 57 | 1009.4 |
| 20260505174436 | 55 | 196 | 9.0 | 23.0 | 0.00 | 0.00 | 0.00 | 57 | 1009.6 |
| 20260505174430 | 56 | 154 | 11.0 | 23.0 | 0.00 | 0.00 | 0.00 | 57 | 1009.5 |
| 20260505173435 | 56 | 142 | 11.0 | 20.0 | 0.00 | 0.00 | 0.00 | 56 | 1009.4 |
| 20260505172937 | 56 | 152 | 8.0 | 19.0 | 0.00 | 0.00 | 0.00 | 56 | 1009.4 |
| 20260505172436 | 56 | 148 | 8.0 | 15.0 | 0.00 | 0.00 | 0.00 | 56 | 1009.4 |
| 20260505171937 | 56 | 157 | 8.0 | 15.0 | 0.00 | 0.00 | 0.00 | 55 | 1009.4 |
| 20260505171438 | 56 | 157 | 7.0 | 14.0 | 0.00 | 0.00 | 0.00 | 55 | 1009.3 |
| 20260505170937 | 56 | 186 | 5.0 | 14.0 | 0.00 | 0.00 | 0.00 | 56 | 1009.2 |
| 20260505170437 | 56 | 167 | 4.0 | 12.0 | 0.00 | 0.00 | 0.00 | 56 | 1009.0 |
| 20260505170210 | 56 | 138 | 7.0 | 13.0 | 0.00 | 0.00 | 0.00 | 56 | 1009.3 |
| 20260505165438 | 56 | 144 | 8.0 | 14.0 | 0.00 | 0.00 | 0.00 | 56 | 1009.3 |
| 20260505164929 | 56 | 129 | 8.0 | 18.0 | 0.00 | 0.00 | 0.00 | 56 | 1009.4 |
| 20260505164431 | 56 | 113 | 8.0 | 18.0 | 0.00 | 0.00 | 0.00 | 56 | 1009.5 |
| 20260505163930 | 56 | 100 | 9.0 | 16.0 | 0.00 | 0.00 | 0.00 | 56 | 1009.6 |
| 20260505163431 | 56 | 146 | 9.0 | 18.0 | 0.00 | 0.00 | 0.00 | 56 | 1009.7 |
| 20260505163159 | 56 | 13 | 9.0 | 18.0 | 0.00 | 0.00 | 0.00 | 56 | 1009.9 |
| 20260505162432 | 56 | 135 | 9.0 | 18.0 | 0.00 | 0.00 | 0.00 | 56 | 1009.7 |
| 20260505161930 | 56 | 142 | 10.0 | 19.0 | 0.00 | 0.00 | 0.00 | 56 | 1009.7 |
| 20260505161431 | 57 | 160 | 11.0 | 21.0 | 0.00 | 0.00 | 0.00 | 56 | 1010.0 |
| 20260505160931 | 57 | 105 | 10.0 | 21.0 | 0.00 | 0.00 | 0.00 | 56 | 1010.1 |
| 20260505160430 | 57 | 156 | 9.0 | 19.0 | 0.00 | 0.00 | 0.00 | 56 | 1010.3 |
| 20260505152930 | 56 | 114 | 10.0 | 18.0 | 0.00 | 0.00 | 0.00 | 59 | 1010.4 |
| 20260505152429 | 56 | 155 | 11.0 | 20.0 | 0.00 | 0.00 | 0.00 | 59 | 1010.4 |
| 20260505151929 | 56 | 163 | 11.0 | 21.0 | 0.00 | 0.00 | 0.00 | 60 | 1010.5 |
| 20260505151429 | 56 | 163 | 10.0 | 21.0 | 0.00 | 0.00 | 0.00 | 60 | 1010.6 |
| 20260505151154 | 56 | 150 | 9.0 | 19.0 | 0.00 | 0.00 | 0.00 | 61 | 1010.5 |
| 20260505150429 | 55 | 134 | 10.0 | 19.0 | 0.00 | 0.00 | 0.00 | 63 | 1010.6 |
| 20260505140430 | 57 | 107 | 9.0 | 19.0 | 0.00 | 0.00 | 0.00 | 56 | 1010.3 |
| 20260505124423 | 58 | 141 | 7.0 | 13.0 | 0.00 | 0.00 | 0.00 | 55 | 1010.5 |
| 20260505123924 | 58 | 65 | 7.0 | 13.0 | 0.00 | 0.00 | 0.00 | 53 | 1010.6 |
| 20260505123423 | 58 | 141 | 7.0 | 16.0 | 0.00 | 0.00 | 0.00 | 53 | 1010.6 |
| 20260505122923 | 58 | 144 | 7.0 | 16.0 | 0.00 | 0.00 | 0.00 | 53 | 1010.5 |
| 20260505122647 | 58 | 140 | 7.0 | 13.0 | 0.00 | 0.00 | 0.00 | 54 | 1010.6 |
| 20260505122143 | 58 | 128 | 8.0 | 13.0 | 0.00 | 0.00 | 0.00 | 54 | 1010.8 |
| 20260505121655 | 58 | 152 | 8.0 | 16.0 | 0.00 | 0.00 | 0.00 | 53 | 1010.8 |
| 20260505120923 | 58 | 147 | 8.0 | 16.0 | 0.00 | 0.00 | 0.00 | 52 | 1010.9 |
| 20260505120423 | 58 | 129 | 8.0 | 19.0 | 0.00 | 0.00 | 0.00 | 52 | 1010.9 |
| 20260505115924 | 59 | 140 | 7.0 | 19.0 | 0.00 | 0.00 | 0.00 | 52 | 1010.9 |
| 20260505115424 | 59 | 153 | 5.0 | 12.0 | 0.00 | 0.00 | 0.00 | 51 | 1010.8 |
| 20260505114925 | 59 | 171 | 5.0 | 14.0 | 0.00 | 0.00 | 0.00 | 51 | 1010.6 |
| 20260505114423 | 59 | 124 | 5.0 | 15.0 | 0.00 | 0.00 | 0.00 | 53 | 1010.8 |
| 20260505113922 | 59 | 127 | 7.0 | 15.0 | 0.00 | 0.00 | 0.00 | 51 | 1010.8 |
| 20260505113701 | 59 | 153 | 5.0 | 13.0 | 0.00 | 0.00 | 0.00 | 50 | 1010.5 |
| 20260505112904 | 60 | 112 | 7.0 | 16.0 | 0.00 | 0.00 | 0.00 | 50 | 1010.6 |
| 20260505112624 | 60 | 119 | 8.0 | 19.0 | 0.00 | 0.00 | 0.00 | 51 | 1010.9 |
| 20260505111857 | 59 | 140 | 10.0 | 22.0 | 0.00 | 0.00 | 0.00 | 51 | 1011.0 |
| 20260505111357 | 59 | 175 | 9.0 | 22.0 | 0.00 | 0.00 | 0.00 | 51 | 1011.1 |
| 20260505110857 | 60 | 207 | 5.0 | 18.0 | 0.00 | 0.00 | 0.00 | 51 | 1010.9 |
| 20260505110357 | 60 | 204 | 7.0 | 18.0 | 0.00 | 0.00 | 0.00 | 50 | 1011.0 |
| 20260505101858 | 62 | 165 | 10.0 | 21.0 | 0.00 | 0.00 | 0.00 | 45 | 1011.0 |
| 20260505101401 | 62 | 155 | 12.0 | 23.0 | 0.00 | 0.00 | 0.00 | 44 | 1011.0 |
| 20260505100856 | 62 | 148 | 12.0 | 23.0 | 0.00 | 0.00 | 0.00 | 44 | 1011.0 |
| 20260505100357 | 62 | 159 | 11.0 | 20.0 | 0.00 | 0.00 | 0.00 | 44 | 1010.9 |
| 20260505095856 | 62 | 161 | 10.0 | 20.0 | 0.00 | 0.00 | 0.00 | 44 | 1010.9 |
| 20260505095356 | 62 | 139 | 8.0 | 15.0 | 0.00 | 0.00 | 0.00 | 45 | 1010.6 |
| 20260505094857 | 62 | 111 | 9.0 | 16.0 | 0.00 | 0.00 | 0.00 | 45 | 1010.8 |
| 20260505094358 | 61 | 139 | 9.0 | 16.0 | 0.00 | 0.00 | 0.00 | 44 | 1011.0 |
| 20260505093856 | 61 | 107 | 8.0 | 16.0 | 0.00 | 0.00 | 0.00 | 42 | 1010.8 |
| 20260505093357 | 61 | 130 | 9.0 | 16.0 | 0.00 | 0.00 | 0.00 | 43 | 1010.8 |
| 20260505092856 | 62 | 141 | 9.0 | 15.0 | 0.00 | 0.00 | 0.00 | 43 | 1010.9 |
| 20260505092621 | 62 | 151 | 8.0 | 14.0 | 0.00 | 0.00 | 0.00 | 42 | 1011.0 |
| 20260505091852 | 61 | 87 | 9.0 | 20.0 | 0.00 | 0.00 | 0.00 | 42 | 1010.9 |
| 20260505091352 | 62 | 153 | 9.0 | 20.0 | 0.00 | 0.00 | 0.00 | 43 | 1011.2 |
| 20260505090853 | 61 | 130 | 9.0 | 20.0 | 0.00 | 0.00 | 0.00 | 43 | 1011.0 |
| 20260505090351 | 60 | 117 | 9.0 | 20.0 | 0.00 | 0.00 | 0.00 | 42 | 1011.0 |
| 20260505085850 | 60 | 117 | 9.0 | 19.0 | 0.00 | 0.00 | 0.00 | 44 | 1010.9 |
| 20260505085349 | 60 | 146 | 8.0 | 19.0 | 0.00 | 0.00 | 0.00 | 42 | 1010.9 |
| 20260505084848 | 60 | 142 | 8.0 | 20.0 | 0.00 | 0.00 | 0.00 | 44 | 1011.0 |
| 20260505084349 | 60 | 134 | 9.0 | 21.0 | 0.00 | 0.00 | 0.00 | 42 | 1011.1 |
| 20260505083848 | 60 | 146 | 9.0 | 21.0 | 0.00 | 0.00 | 0.00 | 43 | 1011.2 |
| 20260505083619 | 60 | 160 | 8.0 | 16.0 | 0.00 | 0.00 | 0.00 | 44 | 1011.1 |
| 20260505082843 | 59 | 139 | 9.0 | 16.0 | 0.00 | 0.00 | 0.00 | 46 | 1011.0 |
| 20260505082337 | 58 | 82 | 9.0 | 16.0 | 0.00 | 0.00 | 0.00 | 46 | 1011.1 |
| 20260505081830 | 58 | 146 | 9.0 | 20.0 | 0.00 | 0.00 | 0.00 | 46 | 1011.1 |
| 20260505081329 | 58 | 151 | 10.0 | 20.0 | 0.00 | 0.00 | 0.00 | 46 | 1011.0 |
| 20260505080830 | 58 | 145 | 8.0 | 18.0 | 0.00 | 0.00 | 0.00 | 46 | 1011.0 |
| 20260505080331 | 58 | 175 | 9.0 | 21.0 | 0.00 | 0.00 | 0.00 | 48 | 1010.9 |
| 20260505075829 | 58 | 148 | 9.0 | 21.0 | 0.00 | 0.00 | 0.00 | 48 | 1011.1 |
| 20260505075329 | 58 | 138 | 9.0 | 19.0 | 0.00 | 0.00 | 0.00 | 47 | 1011.1 |
| 20260505074831 | 58 | 149 | 11.0 | 21.0 | 0.00 | 0.00 | 0.00 | 47 | 1011.2 |
| 20260505074329 | 59 | 150 | 12.0 | 22.0 | 0.00 | 0.00 | 0.00 | 46 | 1011.4 |
| 20260505073830 | 59 | 163 | 12.0 | 24.0 | 0.00 | 0.00 | 0.00 | 48 | 1011.4 |
| 20260505073328 | 59 | 174 | 12.0 | 24.0 | 0.00 | 0.00 | 0.00 | 48 | 1011.4 |
| 20260505072829 | 58 | 131 | 12.0 | 22.0 | 0.00 | 0.00 | 0.00 | 49 | 1011.4 |
| 20260505072329 | 58 | 126 | 12.0 | 22.0 | 0.00 | 0.00 | 0.00 | 48 | 1011.4 |
| 20260505071829 | 58 | 153 | 10.0 | 22.0 | 0.00 | 0.00 | 0.00 | 49 | 1012.2 |
| 20260505071821 | 58 | 132 | 9.0 | 22.0 | 0.00 | 0.00 | 0.00 | 48 | 1011.3 |
| 20260505071058 | 58 | 134 | 9.0 | 18.0 | 0.00 | 0.00 | 0.00 | 49 | 1011.5 |
| 20260505070329 | 58 | 121 | 11.0 | 24.0 | 0.00 | 0.00 | 0.00 | 48 | 1011.4 |
| 20260505065829 | 58 | 150 | 10.0 | 24.0 | 0.00 | 0.00 | 0.00 | 47 | 1011.5 |
| 20260505065329 | 58 | 127 | 11.0 | 25.0 | 0.00 | 0.00 | 0.00 | 47 | 1011.8 |
| 20260505064824 | 58 | 115 | 12.0 | 25.0 | 0.00 | 0.00 | 0.00 | 48 | 1011.9 |
| 20260505064318 | 58 | 140 | 11.0 | 24.0 | 0.00 | 0.00 | 0.00 | 49 | 1011.7 |
| 20260505063812 | 58 | 126 | 10.0 | 22.0 | 0.00 | 0.00 | 0.00 | 48 | 1011.9 |
| 20260505063540 | 58 | 156 | 9.0 | 21.0 | 0.00 | 0.00 | 0.00 | 47 | 1011.8 |
| 20260505062810 | 58 | 138 | 9.0 | 19.0 | 0.00 | 0.00 | 0.00 | 47 | 1011.8 |
| 20260505062310 | 57 | 157 | 11.0 | 20.0 | 0.00 | 0.00 | 0.00 | 49 | 1011.9 |
| 20260505061810 | 57 | 138 | 11.0 | 22.0 | 0.00 | 0.00 | 0.00 | 49 | 1011.8 |
| 20260505061309 | 56 | 93 | 11.0 | 22.0 | 0.00 | 0.00 | 0.00 | 50 | 1011.8 |
| 20260505060810 | 56 | 103 | 12.0 | 25.0 | 0.00 | 0.00 | 0.00 | 50 | 1011.8 |
| 20260505060311 | 56 | 150 | 12.0 | 25.0 | 0.00 | 0.00 | 0.00 | 53 | 1011.8 |
| 20260505055810 | 55 | 136 | 12.0 | 22.0 | 0.00 | 0.00 | 0.00 | 53 | 1011.8 |
| 20260505055310 | 55 | 169 | 12.0 | 23.0 | 0.00 | 0.00 | 0.00 | 53 | 1011.9 |
| 20260505055043 | 55 | 167 | 11.0 | 23.0 | 0.00 | 0.00 | 0.00 | 52 | 1011.8 |
| 20260505055039 | 55 | 162 | 11.0 | 22.0 | 0.00 | 0.00 | 0.00 | 51 | 1011.8 |
| 20260505053810 | 55 | 119 | 10.0 | 22.0 | 0.00 | 0.00 | 0.00 | 52 | 1011.9 |
| 20260505053317 | 55 | 194 | 9.0 | 18.0 | 0.00 | 0.00 | 0.00 | 53 | 1011.7 |
| 20260505052810 | 55 | 134 | 8.0 | 18.0 | 0.00 | 0.00 | 0.00 | 55 | 1011.8 |
| 20260505052309 | 54 | 138 | 8.0 | 19.0 | 0.00 | 0.00 | 0.00 | 55 | 1011.8 |
| 20260505052300 | 55 | 166 | 8.0 | 19.0 | 0.00 | 0.00 | 0.00 | 55 | 1011.8 |
| 20260505051311 | 54 | 174 | 8.0 | 15.0 | 0.00 | 0.00 | 0.00 | 55 | 1011.8 |
| 20260505051039 | 54 | 203 | 7.0 | 15.0 | 0.00 | 0.00 | 0.00 | 57 | 1011.8 |
| 20260505050309 | 54 | 191 | 7.0 | 12.0 | 0.00 | 0.00 | 0.00 | 57 | 1011.9 |
| 20260505041306 | 54 | 138 | 9.0 | 21.0 | 0.00 | 0.00 | 0.00 | 58 | 1012.1 |
| 20260505040806 | 54 | 167 | 8.0 | 19.0 | 0.00 | 0.00 | 0.00 | 58 | 1012.0 |
| 20260505040306 | 54 | 142 | 8.0 | 19.0 | 0.00 | 0.00 | 0.00 | 58 | 1012.1 |
| 20260505035806 | 54 | 195 | 8.0 | 16.0 | 0.00 | 0.00 | 0.00 | 58 | 1012.1 |
| 20260505035305 | 54 | 220 | 7.0 | 14.0 | 0.00 | 0.00 | 0.00 | 58 | 1012.0 |
| 20260505034811 | 55 | 152 | 8.0 | 19.0 | 0.00 | 0.00 | 0.00 | 57 | 1012.1 |
| 20260505034529 | 55 | 114 | 8.0 | 19.0 | 0.00 | 0.00 | 0.00 | 58 | 1012.2 |
| 20260505033807 | 54 | 65 | 7.0 | 14.0 | 0.00 | 0.00 | 0.00 | 58 | 1012.1 |
| 20260505033307 | 54 | 170 | 8.0 | 19.0 | 0.00 | 0.00 | 0.00 | 58 | 1012.1 |
| 20260505032805 | 55 | 203 | 9.0 | 19.0 | 0.00 | 0.00 | 0.00 | 58 | 1012.1 |
| 20260505032525 | 54 | 88 | 9.0 | 19.0 | 0.00 | 0.00 | 0.00 | 58 | 1012.2 |
| 20260505031805 | 54 | 82 | 9.0 | 19.0 | 0.00 | 0.00 | 0.00 | 58 | 1012.2 |
| 20260505031306 | 55 | 192 | 8.0 | 18.0 | 0.00 | 0.00 | 0.00 | 57 | 1012.2 |
| 20260505030804 | 55 | 94 | 9.0 | 18.0 | 0.00 | 0.00 | 0.00 | 58 | 1012.3 |
| 20260505030303 | 55 | 196 | 9.0 | 21.0 | 0.00 | 0.00 | 0.00 | 57 | 1012.3 |
| 20260505025804 | 55 | 177 | 7.0 | 21.0 | 0.00 | 0.00 | 0.00 | 58 | 1012.2 |
| 20260505025527 | 55 | 140 | 8.0 | 16.0 | 0.00 | 0.00 | 0.00 | 58 | 1012.4 |
| 20260505024801 | 55 | 128 | 9.0 | 16.0 | 0.00 | 0.00 | 0.00 | 58 | 1012.4 |
| 20260505024301 | 55 | 157 | 8.0 | 14.0 | 0.00 | 0.00 | 0.00 | 58 | 1012.4 |
| 20260505024022 | 55 | 150 | 8.0 | 16.0 | 0.00 | 0.00 | 0.00 | 57 | 1012.7 |
| 20260505023531 | 55 | 165 | 9.0 | 16.0 | 0.00 | 0.00 | 0.00 | 57 | 1012.7 |
| 20260505022801 | 55 | 171 | 9.0 | 15.0 | 0.00 | 0.00 | 0.00 | 58 | 1012.8 |
| 20260505022301 | 55 | 150 | 9.0 | 23.0 | 0.00 | 0.00 | 0.00 | 58 | 1012.9 |
| 20260505021755 | 55 | 180 | 10.0 | 23.0 | 0.00 | 0.00 | 0.00 | 58 | 1012.9 |
| 20260505021248 | 55 | 147 | 9.0 | 16.0 | 0.00 | 0.00 | 0.00 | 58 | 1012.9 |
| 20260505020748 | 55 | 78 | 7.0 | 15.0 | 0.00 | 0.00 | 0.00 | 58 | 1013.1 |
| 20260505020237 | 55 | 153 | 8.0 | 18.0 | 0.00 | 0.00 | 0.00 | 59 | 1013.0 |
| 20260505015744 | 55 | 176 | 8.0 | 18.0 | 0.00 | 0.00 | 0.00 | 59 | 1013.1 |
| 20260505015235 | 55 | 191 | 9.0 | 16.0 | 0.00 | 0.00 | 0.00 | 59 | 1013.1 |